Location: Tierra Monte Subdivision
(35.2092°N, 106.4864°W)
Time: 01:43:25
(UTC+00:00)

Meteor 2-10 - Pass Details

Date: 30 March 2020
Orbit: 737 x 869 km, 81.2° (Epoch: 05 June)

Event Time Altitude Azimuth Distance (km) Brightness Sun altitude
Exits shadow 03:11:53 49° 103° (ESE) 1,018 4.2 -21.9°
Maximum altitude 03:12:09 50° 93° (E) 1,014 4.2 -21.9°
Drops below altitude 10° 03:17:23 10° 20° (NNE) 2,417 6.6 -22.9°
Sets 03:19:54 0° 15° (NNE) 3,374 7.4 -23.4°
